Theta_e
317 317 317 314 299 297 293 296 299 300 300 304 306 304 298 299 296 297 308 311 312 312 317 318 323 324 324 325 325 325 326 328 329 331 334 336 338 340 342 345 346 346 347 347 347 347 348 349 348
311 316 316 308 293 290 291 298 298 301 304 305 305 303 300 295 301 303 303 309 311 311 314 316 321 321 321 321 321 322 322 323 323 324 325 327 329 333 338 341 343 345 346 347 348 348 348 349 348
312 317 306 298 293 289 291 297 299 300 304 303 301 302 301 297 303 303 305 306 309 309 312 315 318 319 319 318 318 319 319 319 320 320 321 321 322 323 329 334 338 340 344 346 346 347 348 348 348
312 308 305 293 291 293 295 298 299 299 301 303 302 295 298 302 303 304 305 305 305 306 309 312 315 316 316 316 316 316 317 317 317 318 318 318 318 319 320 322 328 334 339 343 346 345 347 347 346
312 306 293 291 292 294 297 300 299 298 299 300 299 296 295 302 306 304 303 304 302 303 304 306 312 313 313 314 314 314 315 315 315 315 316 316 316 316 317 318 319 324 332 336 339 343 346 346 345
302 300 291 289 292 295 296 297 297 298 298 297 297 297 296 303 303 303 303 302 303 302 303 303 308 310 309 310 311 311 312 312 312 313 313 313 313 314 314 315 316 318 323 328 333 336 338 344 344
300 296 290 291 293 294 295 296 294 295 296 295 298 295 297 300 303 303 302 301 301 302 302 301 301 306 312 310 308 309 309 309 310 310 310 310 311 312 312 312 314 316 317 319 325 329 332 337 342
300 296 291 289 290 292 294 295 295 294 293 294 295 293 292 300 303 303 302 301 301 301 300 300 300 301 300 301 308 309 308 308 308 308 308 308 310 310 312 314 310 313 314 316 318 321 326 331 337
302 291 289 291 292 292 292 292 292 293 291 291 293 293 299 303 303 301 300 300 300 301 300 300 300 300 300 299 303 307 309 310 309 307 309 305 302 303 305 309 309 312 313 314 315 317 320 325 328
295 290 290 290 291 291 292 292 292 289 290 291 291 296 300 302 300 298 298 298 299 298 298 299 299 299 299 301 299 300 301 301 301 302 301 302 301 302 306 307 312 313 314 314 314 317 320 322 322
294 291 291 291 292 292 292 290 292 289 289 291 291 293 297 299 299 299 299 299 299 300 299 299 299 298 298 298 298 298 298 299 299 299 299 300 300 300 300 300 301 302 306 304 307 307 313 316 323
289 292 291 292 293 292 290 292 289 290 289 293 293 296 297 297 298 298 299 298 298 298 299 299 298 298 297 297 297 297 297 297 297 297 299 298 297 297 297 298 299 300 302 301 302 304 306 308 318
290 290 292 292 292 291 293 289 289 290 293 293 294 295 295 296 297 298 300 300 300 298 298 297 297 296 297 296 296 296 296 296 296 296 298 298 296 295 297 297 298 299 300 300 301 302 303 304 310
292 292 291 292 292 293 290 289 289 291 293 294 294 293 294 296 297 297 298 298 298 300 298 297 296 296 296 295 295 295 295 295 295 295 296 297 297 295 296 296 297 298 299 300 300 300 301 302 303
292 288 290 290 292 291 291 287 287 291 293 292 293 294 295 295 296 296 296 297 298 298 298 296 296 296 295 294 294 294 295 295 294 295 295 296 297 295 295 295 296 297 299 299 300 300 301 301 302
288 287 283 289 290 290 288 282 289 290 289 290 291 293 294 295 296 295 296 295 298 298 296 297 296 294 294 293 293 294 294 293 293 294 294 295 296 296 294 295 295 297 298 298 299 299 300 300 301
287 284 281 284 290 288 286 283 288 289 289 288 290 290 292 294 295 295 295 294 296 296 295 294 295 294 293 293 293 293 293 293 293 293 293 294 296 296 294 294 295 297 297 297 298 299 298 298 300
281 282 283 281 285 286 284 284 288 290 289 288 288 289 291 293 294 296 296 296 296 295 294 294 294 293 292 292 292 292 291 292 292 292 292 294 294 295 294 294 294 295 295 295 295 296 298 299 299
284 281 282 286 286 283 283 284 287 289 288 287 287 288 289 290 293 294 295 295 294 293 293 293 292 292 291 289 288 288 287 289 289 291 293 293 293 294 293 293 294 294 294 295 294 294 294 295 299
283 281 280 285 285 283 282 282 286 288 287 286 286 287 289 289 291 293 293 292 292 292 292 293 293 292 291 290 289 288 287 288 289 290 291 292 293 294 293 292 292 292 293 294 294 293 292 293 296
283 281 279 278 283 283 280 279 283 285 287 288 288 289 290 290 290 291 292 291 291 291 291 293 293 292 291 291 290 288 288 288 288 289 290 291 292 292 292 291 292 292 292 291 291 292 292 291 293
280 284 282 280 276 272 279 269 281 282 284 286 287 286 287 288 291 291 291 290 291 292 293 293 293 292 292 290 288 286 285 284 287 288 289 290 291 291 291 291 291 290 291 290 291 292 292 293 291
280 284 279 278 273 272 275 269 280 281 281 283 285 287 287 288 289 290 290 291 292 292 291 291 291 291 291 290 287 285 284 286 288 288 288 288 289 289 289 290 290 290 290 291 291 291 292 293 292
284 279 279 276 273 266 269 270 276 278 281 283 286 286 287 286 287 288 288 289 289 290 290 290 290 290 290 287 286 285 285 286 286 286 286 286 286 286 287 289 289 290 290 291 292 292 292 292 293
280 274 270 270 268 270 265 269 275 282 283 284 284 284 285 286 285 286 285 287 287 286 287 289 289 287 287 285 285 286 286 286 285 285 285 285 284 285 286 287 288 289 289 290 291 291 291 292 293
278 274 270 265 268 269 266 267 278 280 282 283 285 285 285 284 286 286 286 286 285 285 285 286 286 285 284 283 284 286 286 285 285 286 286 285 285 285 287 287 287 288 289 290 290 291 292 292 293
278 270 275 268 263 265 272 276 282 280 277 281 282 283 283 284 285 286 287 286 286 285 284 284 283 282 282 284 284 285 285 284 284 286 286 285 286 286 287 288 288 289 289 290 290 290 291 292 293
277 278 270 270 263 263 270 269 274 274 272 275 280 278 281 283 284 285 285 286 285 284 283 283 281 281 282 284 284 285 284 284 286 286 285 285 286 286 287 287 288 289 289 290 290 290 291 292 293
272 271 271 272 273 266 265 272 278 274 274 273 276 280 278 278 282 282 283 284 283 283 282 281 280 280 282 283 283 283 283 285 285 285 285 285 286 287 287 288 288 288 289 290 291 291 291 292 292
278 275 277 270 267 269 270 269 278 276 275 273 274 279 279 279 282 281 281 282 281 281 282 279 279 280 282 283 283 282 283 284 284 284 284 286 286 287 287 288 288 288 288 289 289 289 290 290 291
Wind_Speed
15 10 6 2 3 4 8 10 3 5 3 6 5 8 10 10 5 7 5 7 9 11 11 11 17 19 19 20 19 20 19 19 19 18 18 17 16 14 13 13 12 10 7 6 5 5 6 5 7
7 4 3 4 3 6 7 9 6 6 9 8 6 3 6 6 7 11 7 8 8 12 10 10 16 17 18 18 18 19 19 18 18 17 16 16 16 15 15 14 14 13 10 10 9 7 7 6 7
7 6 2 3 4 9 3 6 11 8 8 4 5 6 6 5 11 9 10 9 10 11 9 10 15 16 16 17 18 18 18 17 17 16 16 16 16 15 14 13 13 14 14 11 9 9 7 7 8
4 3 4 3 9 5 5 8 11 7 3 6 6 8 6 9 6 8 9 10 9 11 10 11 14 15 16 16 17 17 17 17 16 16 15 15 15 15 14 14 13 12 12 14 11 9 8 7 8
3 4 4 6 13 7 6 9 5 7 9 7 2 6 6 5 13 11 8 9 9 9 8 8 12 13 14 16 16 16 16 15 15 15 15 16 15 14 13 13 13 13 11 12 13 13 10 6 8
3 2 4 7 10 8 7 4 2 3 6 6 1 8 5 10 9 8 7 8 9 8 8 7 10 10 10 12 14 13 14 14 14 14 14 16 16 14 13 13 13 12 12 13 12 12 13 11 8
2 3 7 9 5 7 6 5 4 4 6 5 6 7 6 9 9 8 8 8 8 8 7 6 6 6 9 10 14 13 13 12 13 13 13 16 15 12 15 14 14 12 14 14 13 13 12 13 12
3 3 6 3 5 4 7 6 7 6 5 3 6 1 7 12 11 8 8 6 7 6 6 6 5 6 5 4 12 9 13 13 13 13 13 14 13 15 13 12 14 17 17 16 16 15 14 13 14
1 3 4 4 2 6 2 4 2 3 1 1 4 5 3 15 12 7 6 5 6 4 6 5 4 5 5 2 6 6 7 9 11 10 10 8 5 7 8 11 16 16 16 16 16 17 16 14 13
1 2 5 7 7 6 6 4 7 1 5 4 5 8 7 12 10 8 8 7 8 7 6 5 5 4 4 5 5 5 6 4 5 6 7 5 6 6 9 8 12 14 14 15 16 17 16 10 6
1 2 5 8 8 9 4 3 2 3 6 6 9 13 9 7 9 9 9 7 10 8 6 5 4 3 4 4 2 2 2 3 3 5 6 5 5 4 4 4 4 5 8 5 7 7 4 6 4
2 3 4 4 5 5 2 7 4 7 3 3 7 7 12 10 9 8 7 6 8 8 8 7 4 2 4 1 2 3 3 3 3 4 6 4 3 4 5 4 5 5 4 6 5 4 6 8 6
2 3 2 3 1 3 5 6 6 9 9 4 4 3 10 9 9 8 7 5 8 8 8 7 5 3 3 2 2 2 3 3 4 4 5 4 4 4 4 5 5 5 5 5 5 5 6 6 7
2 1 2 2 1 2 4 5 2 5 4 8 8 6 5 9 9 6 7 6 5 7 7 6 3 4 2 2 2 2 3 3 4 4 4 5 4 4 4 4 6 6 5 5 5 6 7 7 8
2 2 4 4 2 2 3 7 11 9 5 4 7 10 8 7 7 7 5 6 7 6 8 6 3 4 1 2 2 3 3 3 3 4 5 5 5 5 5 4 5 6 6 7 6 7 7 7 7
2 1 2 2 1 2 3 7 4 5 1 6 8 7 8 8 8 6 4 2 5 8 8 6 2 1 1 1 2 3 3 3 4 3 4 5 5 5 5 4 5 6 5 5 6 6 8 7 7
5 1 3 4 2 3 3 7 2 4 4 7 7 6 6 7 7 6 5 3 3 7 7 6 5 3 1 2 3 4 6 4 4 4 3 5 5 5 5 5 6 7 7 5 6 8 7 8 8
2 3 1 4 2 2 7 15 17 14 12 11 9 8 7 8 9 9 6 7 8 6 4 2 3 4 2 2 4 3 4 4 3 3 4 6 4 6 5 5 7 7 7 5 4 9 8 8 8
4 3 5 5 3 2 7 13 18 13 8 8 9 9 9 6 6 7 7 8 7 4 4 5 4 3 1 2 2 3 3 3 3 4 6 6 5 6 6 5 7 6 7 9 10 9 11 9 7
3 1 4 6 3 2 8 16 23 18 9 2 2 6 7 6 8 7 6 5 4 5 6 6 4 5 3 2 2 2 3 4 5 4 6 8 7 5 6 6 5 5 7 9 10 10 9 9 8
3 1 3 3 10 6 8 10 3 3 6 6 4 8 7 7 7 6 6 6 6 7 8 6 7 4 2 3 2 3 3 4 3 4 4 4 6 6 6 7 8 10 8 8 11 9 12 9 10
1 6 4 4 5 3 4 7 8 5 6 5 6 6 7 7 7 7 7 7 8 8 7 6 3 4 4 3 3 4 4 6 4 5 5 5 6 7 7 8 11 12 8 10 9 10 10 9 10
2 4 2 2 1 5 1 3 9 4 6 7 8 7 8 9 9 7 6 5 5 4 3 3 3 3 3 3 4 4 5 5 5 6 9 8 7 7 8 9 9 9 8 9 11 11 11 9 9
1 2 3 1 1 2 3 3 7 1 3 7 7 8 8 7 7 6 4 1 4 4 4 5 5 5 3 3 5 6 7 7 7 8 8 7 5 7 8 10 10 10 9 9 9 10 12 10 11
3 2 2 2 1 5 3 1 12 3 3 8 8 9 8 7 5 2 1 2 4 5 5 4 3 3 2 4 5 6 6 6 8 8 7 10 9 7 8 10 10 8 10 10 10 10 12 11 10
1 2 3 4 3 4 3 7 8 1 4 4 6 8 8 5 5 8 5 2 3 4 4 4 3 3 4 5 6 5 6 4 5 7 8 8 8 8 10 11 11 12 12 11 11 10 10 12 12
2 1 1 1 1 3 6 7 7 3 4 3 6 7 7 2 4 8 6 6 6 5 4 2 2 4 5 6 5 6 6 6 5 10 9 7 9 9 11 12 11 12 13 13 12 10 12 12 13
1 1 3 2 2 5 6 4 7 4 4 3 7 6 4 2 7 7 7 6 5 5 3 1 3 5 5 5 5 5 5 6 9 9 10 10 10 11 12 12 12 12 12 12 13 11 12 13 11
2 2 2 1 3 5 3 7 5 8 6 9 7 6 7 6 8 7 7 6 6 5 5 5 4 4 4 5 5 6 6 8 9 9 9 12 11 11 11 11 12 11 12 12 11 12 13 15 13
2 2 5 4 6 4 2 10 4 6 7 5 7 8 6 6 9 7 6 6 6 6 5 3 2 3 3 4 5 6 6 8 9 9 11 10 10 10 10 10 11 11 10 11 11 12 12 13 13
Wind_Direction
300 246 244 295 233 219 247 232 86 82 61 35 40 31 101 36 21 125 121 103 96 83 81 65 61 59 56 53 51 51 49 44 40 37 34 29 24 19 16 11 5 352 329 310 296 269 260 226 203
296 268 267 258 248 225 237 224 128 87 89 76 63 327 46 85 72 114 106 99 92 91 78 69 66 63 59 54 50 47 44 41 39 35 31 26 20 15 11 11 7 358 342 316 286 268 247 241 218
271 258 247 206 214 256 4 42 97 79 109 171 106 18 56 89 136 132 119 121 100 88 83 75 72 67 61 56 51 45 40 36 33 30 25 20 15 11 8 7 2 1 352 332 313 291 282 243 228
259 215 264 266 239 210 56 71 94 102 126 351 85 84 62 338 102 120 135 110 98 94 91 79 78 72 66 58 50 44 37 32 26 24 20 14 7 1 359 360 358 351 343 345 327 299 291 268 238
247 249 249 213 265 114 54 69 120 159 147 148 315 132 92 54 98 120 128 122 114 105 104 91 84 76 67 56 47 42 37 31 24 19 13 6 359 354 351 350 349 344 336 336 331 335 310 277 257
262 281 249 229 232 89 91 110 182 158 125 82 207 105 97 125 137 137 140 118 113 111 128 118 102 82 72 60 47 43 35 28 22 18 11 1 352 348 349 342 338 332 341 331 319 319 317 316 264
260 225 260 288 100 129 126 137 223 189 149 132 353 117 116 162 133 137 121 102 104 118 109 85 76 60 52 68 41 36 33 29 23 18 11 356 342 336 339 338 330 339 326 320 313 309 305 303 295
314 324 264 246 290 92 90 161 353 351 95 105 12 162 165 172 135 122 108 124 98 106 101 95 70 51 35 29 44 15 21 15 14 12 8 355 346 351 337 333 339 324 318 311 304 299 296 290 294
304 288 277 296 180 81 87 171 27 13 48 327 101 49 26 133 127 130 136 140 114 110 101 90 62 51 17 13 38 13 21 10 8 0 1 358 348 329 337 322 311 312 309 306 301 292 288 286 286
261 263 10 10 13 36 105 327 144 223 192 169 121 84 100 126 142 164 175 176 169 168 139 116 87 48 15 26 9 10 10 3 2 345 10 347 329 335 330 319 318 304 300 300 298 289 274 272 263
28 306 351 44 23 357 62 318 66 281 263 192 192 155 157 151 170 188 193 196 177 164 127 101 94 75 47 17 339 14 354 10 328 2 348 334 339 323 330 320 320 319 315 312 307 316 294 263 280
259 45 355 20 25 351 9 349 298 221 252 54 10 120 155 170 185 199 208 195 129 127 142 140 143 120 100 342 23 358 2 344 343 345 322 345 328 334 323 315 316 316 310 313 308 304 301 302 270
281 92 42 64 34 323 339 274 263 284 263 121 109 359 163 172 196 192 189 209 146 155 144 156 144 129 102 47 27 356 336 335 338 320 326 342 333 316 316 308 308 303 310 305 302 300 298 296 289
37 37 83 138 90 278 318 286 30 228 220 224 159 194 240 178 196 187 166 177 157 150 148 124 153 116 82 62 356 338 324 320 330 316 315 319 307 299 299 310 314 305 301 303 305 306 303 298 299
133 239 184 194 77 8 331 262 232 240 166 240 227 187 205 215 198 188 184 198 182 169 142 135 165 111 61 357 359 338 292 331 296 294 302 309 306 299 300 296 296 293 295 300 303 301 294 285 274
254 192 272 89 330 101 327 274 138 60 155 230 245 231 189 215 205 165 196 223 188 139 131 157 155 158 190 323 313 292 289 275 272 278 277 290 301 308 304 295 290 291 294 295 293 290 287 285 281
32 250 297 150 49 333 185 274 201 144 217 246 249 232 204 207 197 190 177 202 133 120 143 152 179 204 230 293 295 275 270 264 263 263 289 301 301 302 291 288 291 300 293 285 297 292 289 293 290
335 314 278 260 130 251 261 260 271 268 218 229 222 243 226 198 198 202 168 151 127 134 140 159 172 204 231 270 267 274 283 282 299 302 296 288 301 295 290 287 289 289 283 276 300 301 295 276 280
342 334 300 312 110 331 261 282 282 275 276 263 222 215 210 208 97 87 95 106 113 134 177 210 222 250 216 267 293 294 279 299 294 291 286 296 282 277 274 275 279 284 290 289 287 290 298 300 293
309 63 287 293 74 307 289 290 274 282 258 285 40 76 82 81 68 79 100 122 167 203 215 222 232 239 245 230 258 256 265 259 258 266 269 262 265 286 294 295 294 298 300 299 283 281 284 280 291
269 224 336 318 339 258 300 284 230 82 106 92 36 68 109 131 141 146 166 187 202 217 229 226 230 228 259 270 277 280 288 293 299 295 296 303 302 291 290 288 280 284 286 284 280 276 275 283 275
315 13 29 7 20 284 50 283 313 156 165 156 155 163 133 116 138 163 186 208 220 228 218 216 206 244 246 286 283 279 277 289 280 292 291 298 293 286 284 285 284 282 274 268 267 265 259 266 266
51 4 12 67 310 24 173 71 263 130 156 163 160 165 133 150 165 178 195 224 251 261 238 203 221 260 260 269 277 278 277 273 288 292 294 296 297 301 297 287 290 283 275 274 272 269 263 259 267
60 343 230 102 168 344 240 124 285 89 120 134 137 143 141 140 131 97 63 281 264 267 258 225 217 239 259 294 282 281 281 290 294 297 299 303 316 308 303 303 292 281 277 270 267 265 263 262 259
21 5 312 327 348 230 266 294 245 284 50 151 160 148 132 149 114 127 100 295 293 303 302 297 226 274 308 307 295 285 286 293 294 302 298 301 297 290 290 290 287 280 275 273 272 270 267 268 267
146 87 146 247 322 290 325 242 255 14 37 20 69 122 132 177 233 236 271 328 288 297 304 292 306 315 320 295 288 294 291 279 275 285 294 287 286 284 286 277 272 269 269 265 265 266 262 260 257
170 217 18 68 57 39 232 281 304 22 344 226 152 160 197 153 305 292 309 327 318 312 302 313 335 302 294 293 297 291 288 294 293 299 289 284 282 280 277 277 279 275 271 267 266 263 263 262 262
154 10 42 325 316 277 282 260 238 268 270 256 193 214 190 232 304 294 296 291 292 293 278 257 261 263 268 286 293 309 304 291 299 289 284 287 284 278 276 277 276 276 274 267 262 261 261 261 258
122 249 266 50 178 207 287 267 223 196 203 207 213 207 245 266 263 260 263 266 272 258 240 232 240 267 292 307 326 300 291 295 299 295 297 293 283 277 276 276 282 276 276 274 271 265 265 259 260
324 251 178 150 263 245 176 270 219 215 190 182 231 251 255 243 264 260 253 256 258 247 225 216 273 284 307 333 311 305 308 307 309 305 302 295 295 290 290 285 279 280 279 281 279 278 275 272 268